| time (UTC) | temp F | wind direction | speed MPH | gust MPH | rain 1hr in | rain 24hr in | rain mn in | humidity % | barometer mb |
| 20260904052134 | 74 | 180 | 3.0 | 6.0 | 0.00 | 0.00 | 0.00 | 64 | 997.0 |
| 20260904051633 | 75 | 170 | 4.0 | 6.0 | 0.00 | 0.00 | 0.00 | 63 | 997.0 |
| 20260904051130 | 75 | 174 | 3.0 | 6.0 | 0.00 | 0.00 | 0.00 | 64 | 997.0 |
| 20260904050625 | 75 | 179 | 3.0 | 6.0 | 0.00 | 0.00 | 0.00 | 64 | 997.1 |
| 20260904050121 | 75 | 163 | 4.0 | 6.0 | 0.00 | 0.00 | 0.00 | 63 | 997.2 |
| 20260904045615 | 76 | 160 | 5.0 | 6.0 | 0.00 | 0.00 | 0.00 | 63 | 997.0 |
| 20260904045112 | 76 | 181 | 5.0 | 5.0 | 0.00 | 0.00 | 0.00 | 62 | 997.0 |
| 20260904044547 | 77 | 170 | 4.0 | 5.0 | 0.00 | 0.00 | 0.00 | 61 | 996.9 |
| 20260904044044 | 77 | 170 | 4.0 | 6.0 | 0.00 | 0.00 | 0.00 | 60 | 996.9 |
| 20260904043751 | 77 | 169 | 4.0 | 6.0 | 0.00 | 0.00 | 0.00 | 59 | 997.1 |
| 20260904043014 | 78 | 168 | 4.0 | 6.0 | 0.00 | 0.00 | 0.00 | 59 | 997.0 |
| 20260904042510 | 78 | 178 | 4.0 | 6.0 | 0.00 | 0.00 | 0.00 | 59 | 997.0 |
| 20260904042224 | 78 | 183 | 4.0 | 5.0 | 0.00 | 0.00 | 0.00 | 58 | 997.2 |
| 20260904041721 | 79 | 180 | 4.0 | 5.0 | 0.00 | 0.00 | 0.00 | 56 | 997.1 |
| 20260904041445 | 79 | 339 | 2.0 | 5.0 | 0.00 | 0.00 | 0.00 | 57 | 997.3 |
| 20260904040453 | 79 | 358 | 2.0 | 4.0 | 0.00 | 0.00 | 0.00 | 56 | 997.5 |
| 20260904035949 | 80 | 20 | 2.0 | 5.0 | 0.00 | 0.00 | 0.00 | 55 | 997.4 |
| 20260904035445 | 80 | 16 | 2.0 | 5.0 | 0.00 | 0.00 | 0.00 | 57 | 997.4 |
| 20260904034941 | 79 | 15 | 3.0 | 5.0 | 0.00 | 0.00 | 0.00 | 57 | 997.4 |
| 20260904034431 | 80 | 23 | 2.0 | 5.0 | 0.00 | 0.00 | 0.00 | 57 | 997.4 |
| 20260904033911 | 80 | 19 | 2.0 | 4.0 | 0.00 | 0.00 | 0.00 | 56 | 997.6 |
| 20260904033624 | 80 | 25 | 0.0 | 5.0 | 0.00 | 0.00 | 0.00 | 56 | 997.7 |
| 20260904033122 | 81 | 23 | 1.0 | 5.0 | 0.00 | 0.00 | 0.00 | 55 | 997.7 |
| 20260904032347 | 81 | 0 | 2.0 | 4.0 | 0.00 | 0.00 | 0.00 | 55 | 997.7 |
| 20260904032050 | 81 | 25 | 2.0 | 4.0 | 0.00 | 0.00 | 0.00 | 54 | 997.8 |
| 20260904031330 | 81 | 349 | 2.0 | 4.0 | 0.00 | 0.00 | 0.00 | 54 | 998.0 |
| 20260904030830 | 82 | 8 | 2.0 | 4.0 | 0.00 | 0.00 | 0.00 | 54 | 998.0 |
| 20260904030808 | 82 | 359 | 1.0 | 5.0 | 0.00 | 0.00 | 0.00 | 49 | 998.2 |
| 20260904025826 | 83 | 351 | 2.0 | 5.0 | 0.00 | 0.00 | 0.00 | 49 | 998.2 |
| 20260904025323 | 81 | 349 | 2.0 | 5.0 | 0.00 | 0.00 | 0.00 | 49 | 998.3 |
| 20260904024818 | 81 | 19 | 1.0 | 4.0 | 0.00 | 0.00 | 0.00 | 49 | 998.4 |
| 20260904024315 | 83 | 4 | 2.0 | 4.0 | 0.00 | 0.00 | 0.00 | 48 | 998.4 |
| 20260904023810 | 83 | 22 | 1.0 | 4.0 | 0.00 | 0.00 | 0.00 | 49 | 998.4 |
| 20260904023305 | 82 | 346 | 2.0 | 4.0 | 0.00 | 0.00 | 0.00 | 49 | 998.6 |
| 20260904022751 | 82 | 6 | 0.0 | 4.0 | 0.00 | 0.00 | 0.00 | 50 | 998.7 |
| 20260904022247 | 82 | 13 | 2.0 | 4.0 | 0.00 | 0.00 | 0.00 | 49 | 998.9 |
| 20260904021733 | 82 | 351 | 3.0 | 5.0 | 0.00 | 0.00 | 0.00 | 53 | 998.8 |
| 20260904021228 | 82 | 0 | 2.0 | 5.0 | 0.00 | 0.00 | 0.00 | 50 | 998.9 |
| 20260904020713 | 81 | 3 | 2.0 | 4.0 | 0.00 | 0.00 | 0.00 | 50 | 999.1 |
| 20260904020428 | 81 | 30 | 3.0 | 4.0 | 0.00 | 0.00 | 0.00 | 51 | 999.1 |
| 20260904015705 | 82 | 41 | 2.0 | 6.0 | 0.00 | 0.00 | 0.00 | 52 | 999.2 |
| 20260904015157 | 82 | 355 | 2.0 | 6.0 | 0.00 | 0.00 | 0.00 | 53 | 999.1 |
| 20260904014656 | 82 | 18 | 2.0 | 5.0 | 0.00 | 0.00 | 0.00 | 50 | 999.5 |
| 20260904014152 | 82 | 353 | 2.0 | 5.0 | 0.00 | 0.00 | 0.00 | 52 | 999.5 |
| 20260904013638 | 82 | 30 | 1.0 | 4.0 | 0.00 | 0.00 | 0.00 | 53 | 999.5 |
| 20260904013113 | 82 | 346 | 2.0 | 4.0 | 0.00 | 0.00 | 0.00 | 52 | 999.7 |
| 20260904013050 | 82 | 359 | 4.0 | 5.0 | 0.00 | 0.00 | 0.00 | 51 | 999.8 |
| 20260904012057 | 81 | 18 | 3.0 | 5.0 | 0.00 | 0.00 | 0.00 | 52 | 999.7 |
| 20260904011557 | 81 | 14 | 2.0 | 4.0 | 0.00 | 0.00 | 0.00 | 53 | 999.9 |
| 20260904011057 | 82 | 352 | 2.0 | 4.0 | 0.00 | 0.00 | 0.00 | 53 | 1000.2 |
| 20260904010603 | 82 | 350 | 2.0 | 5.0 | 0.00 | 0.00 | 0.00 | 55 | 1000.2 |
| 20260904010556 | 80 | 358 | 2.0 | 5.0 | 0.00 | 0.00 | 0.00 | 53 | 1000.2 |
| 20260904005552 | 81 | 29 | 0.0 | 4.0 | 0.00 | 0.00 | 0.00 | 55 | 1000.2 |
| 20260904005048 | 81 | 6 | 2.0 | 4.0 | 0.00 | 0.00 | 0.00 | 53 | 1000.3 |
| 20260904004809 | 81 | 338 | 2.0 | 4.0 | 0.00 | 0.00 | 0.00 | 54 | 1000.5 |
| 20260904004301 | 80 | 33 | 2.0 | 4.0 | 0.00 | 0.00 | 0.00 | 55 | 1000.5 |
| 20260904003526 | 80 | 32 | 2.0 | 4.0 | 0.00 | 0.00 | 0.00 | 55 | 1000.3 |
| 20260904003022 | 80 | 9 | 0.0 | 4.0 | 0.00 | 0.00 | 0.00 | 58 | 1000.5 |
| 20260904002517 | 80 | 13 | 3.0 | 4.0 | 0.00 | 0.00 | 0.00 | 58 | 1000.6 |
| 20260904002234 | 79 | 25 | 3.0 | 4.0 | 0.00 | 0.00 | 0.00 | 59 | 1000.5 |
| 20260904001509 | 78 | 310 | 3.0 | 4.0 | 0.00 | 0.00 | 0.00 | 58 | 1000.6 |
| 20260904000954 | 79 | 23 | 2.0 | 4.0 | 0.00 | 0.00 | 0.00 | 59 | 1000.6 |
| 20260904000450 | 79 | 26 | 2.0 | 4.0 | 0.00 | 0.00 | 0.00 | 59 | 1000.7 |
| 20260903235947 | 79 | 333 | 1.0 | 4.0 | 0.00 | 0.00 | 0.00 | 58 | 1000.7 |
| 20260903235708 | 78 | 6 | 2.0 | 4.0 | 0.00 | 0.00 | 0.00 | 58 | 1000.7 |
| 20260903234918 | 79 | 6 | 2.0 | 4.0 | 0.00 | 0.00 | 0.00 | 59 | 1000.8 |
| 20260903234414 | 79 | 11 | 3.0 | 4.0 | 0.00 | 0.00 | 0.00 | 57 | 1001.0 |
| 20260903233849 | 78 | 337 | 2.0 | 4.0 | 0.00 | 0.00 | 0.00 | 57 | 1000.8 |
| 20260903233344 | 77 | 29 | 2.0 | 4.0 | 0.00 | 0.00 | 0.00 | 59 | 1000.9 |
| 20260903232840 | 78 | 22 | 3.0 | 4.0 | 0.00 | 0.00 | 0.00 | 58 | 1001.0 |
| 20260903232316 | 77 | 12 | 3.0 | 4.0 | 0.00 | 0.00 | 0.00 | 59 | 1001.0 |
| 20260903231811 | 76 | 12 | 2.0 | 4.0 | 0.00 | 0.00 | 0.00 | 59 | 1000.9 |
| 20260903231755 | 77 | 13 | 2.0 | 4.0 | 0.00 | 0.00 | 0.00 | 58 | 1000.9 |
| 20260903230752 | 76 | 9 | 3.0 | 6.0 | 0.00 | 0.00 | 0.00 | 58 | 1001.0 |
| 20260903230252 | 76 | 350 | 2.0 | 6.0 | 0.00 | 0.00 | 0.00 | 58 | 1000.7 |
| 20260903225753 | 76 | 175 | 5.0 | 6.0 | 0.00 | 0.00 | 0.00 | 57 | 1000.9 |
| 20260903225241 | 76 | 169 | 4.0 | 6.0 | 0.00 | 0.00 | 0.00 | 60 | 1000.9 |
| 20260903224722 | 76 | 178 | 4.0 | 5.0 | 0.00 | 0.00 | 0.00 | 60 | 1000.9 |
| 20260903224221 | 75 | 171 | 4.0 | 5.0 | 0.00 | 0.00 | 0.00 | 61 | 1001.0 |
| 20260903223717 | 74 | 190 | 3.0 | 4.0 | 0.00 | 0.00 | 0.00 | 64 | 1001.0 |
| 20260903223214 | 74 | 180 | 3.0 | 4.0 | 0.00 | 0.00 | 0.00 | 61 | 1000.9 |
| 20260903222710 | 72 | 184 | 3.0 | 4.0 | 0.00 | 0.00 | 0.00 | 65 | 1000.8 |
| 20260903222206 | 71 | 202 | 3.0 | 4.0 | 0.00 | 0.00 | 0.00 | 66 | 1000.8 |
| 20260903221701 | 70 | 180 | 4.0 | 4.0 | 0.00 | 0.00 | 0.00 | 67 | 1000.7 |
| 20260903221157 | 69 | 190 | 3.0 | 4.0 | 0.00 | 0.00 | 0.00 | 69 | 1000.8 |
| 20260903220652 | 69 | 196 | 3.0 | 4.0 | 0.00 | 0.00 | 0.00 | 68 | 1000.7 |
| 20260903220148 | 68 | 187 | 3.0 | 4.0 | 0.00 | 0.00 | 0.00 | 68 | 1000.5 |
| 20260903215644 | 68 | 184 | 3.0 | 4.0 | 0.00 | 0.00 | 0.00 | 67 | 1000.6 |
| 20260903215140 | 67 | 195 | 3.0 | 4.0 | 0.00 | 0.00 | 0.00 | 69 | 1000.4 |
| 20260903214636 | 67 | 192 | 2.0 | 4.0 | 0.00 | 0.00 | 0.00 | 72 | 1000.3 |
| 20260903214111 | 69 | 179 | 3.0 | 4.0 | 0.00 | 0.00 | 0.00 | 67 | 1000.4 |
| 20260903213837 | 69 | 182 | 3.0 | 4.0 | 0.00 | 0.00 | 0.00 | 64 | 1000.4 |
| 20260903213332 | 67 | 180 | 4.0 | 4.0 | 0.00 | 0.00 | 0.00 | 67 | 1000.1 |
| 20260903212809 | 65 | 181 | 3.0 | 4.0 | 0.00 | 0.00 | 0.00 | 72 | 1000.2 |
| 20260903212034 | 65 | 187 | 4.0 | 4.0 | 0.00 | 0.00 | 0.00 | 73 | 1000.2 |
| 20260903211521 | 65 | 184 | 3.0 | 4.0 | 0.00 | 0.00 | 0.00 | 74 | 999.9 |
| 20260903211016 | 65 | 185 | 3.0 | 4.0 | 0.00 | 0.00 | 0.00 | 73 | 1000.1 |
| 20260903210512 | 64 | 183 | 4.0 | 5.0 | 0.00 | 0.00 | 0.00 | 73 | 999.9 |
| 20260903210008 | 63 | 181 | 4.0 | 5.0 | 0.00 | 0.00 | 0.00 | 74 | 999.9 |
| 20260903205503 | 62 | 180 | 4.0 | 5.0 | 0.00 | 0.00 | 0.00 | 77 | 999.9 |
| 20260903204948 | 61 | 184 | 4.0 | 5.0 | 0.00 | 0.00 | 0.00 | 78 | 999.7 |
| 20260903204433 | 60 | 179 | 4.0 | 5.0 | 0.00 | 0.00 | 0.00 | 79 | 999.7 |
| 20260903203919 | 59 | 173 | 4.0 | 5.0 | 0.00 | 0.00 | 0.00 | 82 | 999.6 |
| 20260903203414 | 58 | 177 | 4.0 | 5.0 | 0.00 | 0.00 | 0.00 | 82 | 999.6 |
| 20260903202923 | 59 | 181 | 4.0 | 5.0 | 0.00 | 0.00 | 0.00 | 82 | 999.6 |
| 20260903202418 | 58 | 176 | 4.0 | 5.0 | 0.00 | 0.00 | 0.00 | 83 | 999.6 |
| 20260903201851 | 58 | 172 | 4.0 | 5.0 | 0.00 | 0.00 | 0.00 | 83 | 999.4 |
| 20260903201347 | 58 | 178 | 4.0 | 5.0 | 0.00 | 0.00 | 0.00 | 83 | 999.5 |
| 20260903200833 | 58 | 178 | 4.0 | 5.0 | 0.00 | 0.00 | 0.00 | 83 | 999.4 |
| 20260903200329 | 58 | 179 | 4.0 | 6.0 | 0.00 | 0.00 | 0.00 | 82 | 999.1 |
| 20260903195825 | 58 | 174 | 4.0 | 6.0 | 0.00 | 0.00 | 0.00 | 82 | 999.2 |
| 20260903195311 | 58 | 179 | 4.0 | 5.0 | 0.00 | 0.00 | 0.00 | 82 | 999.3 |
| 20260903194807 | 58 | 180 | 4.0 | 5.0 | 0.00 | 0.00 | 0.00 | 82 | 999.2 |
| 20260903194254 | 58 | 179 | 5.0 | 5.0 | 0.00 | 0.00 | 0.00 | 82 | 998.9 |
| 20260903193748 | 58 | 176 | 4.0 | 5.0 | 0.00 | 0.00 | 0.00 | 81 | 999.0 |
| 20260903193234 | 59 | 177 | 4.0 | 5.0 | 0.00 | 0.00 | 0.00 | 81 | 998.8 |
| 20260903192730 | 59 | 179 | 4.0 | 5.0 | 0.00 | 0.00 | 0.00 | 82 | 998.8 |
| 20260903192226 | 58 | 176 | 4.0 | 5.0 | 0.00 | 0.00 | 0.00 | 83 | 998.8 |
| 20260903191722 | 58 | 176 | 4.0 | 5.0 | 0.00 | 0.00 | 0.00 | 83 | 998.8 |
| 20260903191217 | 58 | 176 | 4.0 | 5.0 | 0.00 | 0.00 | 0.00 | 83 | 998.7 |
| 20260903190716 | 58 | 175 | 4.0 | 6.0 | 0.00 | 0.00 | 0.00 | 83 | 998.6 |
| 20260903190217 | 58 | 175 | 4.0 | 6.0 | 0.00 | 0.00 | 0.00 | 83 | 998.7 |
| 20260903185714 | 58 | 171 | 4.0 | 5.0 | 0.00 | 0.00 | 0.00 | 84 | 998.4 |
| 20260903185146 | 58 | 180 | 4.0 | 5.0 | 0.00 | 0.00 | 0.00 | 84 | 998.2 |
| 20260903184646 | 58 | 180 | 4.0 | 5.0 | 0.00 | 0.00 | 0.00 | 83 | 998.4 |
| 20260903184401 | 58 | 180 | 4.0 | 5.0 | 0.00 | 0.00 | 0.00 | 83 | 998.5 |
| 20260903183615 | 58 | 177 | 4.0 | 5.0 | 0.00 | 0.00 | 0.00 | 83 | 998.3 |
| 20260903183334 | 58 | 181 | 3.0 | 5.0 | 0.00 | 0.00 | 0.00 | 83 | 998.1 |
| 20260903183051 | 58 | 180 | 3.0 | 5.0 | 0.00 | 0.00 | 0.00 | 83 | 998.0 |
| 20260903182054 | 58 | 180 | 3.0 | 5.0 | 0.00 | 0.00 | 0.00 | 84 | 997.9 |
| 20260903181545 | 58 | 178 | 4.0 | 5.0 | 0.00 | 0.00 | 0.00 | 84 | 997.9 |
| 20260903181311 | 58 | 174 | 4.0 | 5.0 | 0.00 | 0.00 | 0.00 | 83 | 997.8 |
| 20260903180747 | 59 | 176 | 4.0 | 5.0 | 0.00 | 0.00 | 0.00 | 83 | 997.8 |
| 20260903180014 | 59 | 177 | 4.0 | 5.0 | 0.00 | 0.00 | 0.00 | 83 | 997.8 |
| 20260903175512 | 58 | 176 | 3.0 | 5.0 | 0.00 | 0.00 | 0.00 | 83 | 997.6 |
| 20260903175009 | 58 | 176 | 4.0 | 5.0 | 0.00 | 0.00 | 0.00 | 83 | 997.7 |
| 20260903174455 | 59 | 179 | 4.0 | 5.0 | 0.00 | 0.00 | 0.00 | 82 | 997.6 |
| 20260903173944 | 59 | 179 | 4.0 | 5.0 | 0.00 | 0.00 | 0.00 | 81 | 997.8 |
| 20260903173437 | 59 | 180 | 4.0 | 5.0 | 0.00 | 0.00 | 0.00 | 81 | 997.7 |
| 20260903172921 | 59 | 173 | 4.0 | 5.0 | 0.00 | 0.00 | 0.00 | 81 | 997.7 |
| 20260903172417 | 59 | 175 | 4.0 | 5.0 | 0.00 | 0.00 | 0.00 | 82 | 997.5 |
| 20260903171914 | 59 | 180 | 3.0 | 5.0 | 0.00 | 0.00 | 0.00 | 82 | 997.6 |
| 20260903171359 | 59 | 179 | 4.0 | 5.0 | 0.00 | 0.00 | 0.00 | 82 | 997.7 |
| 20260903170855 | 60 | 179 | 4.0 | 5.0 | 0.00 | 0.00 | 0.00 | 79 | 997.4 |
| 20260903170351 | 60 | 171 | 4.0 | 6.0 | 0.00 | 0.00 | 0.00 | 79 | 997.6 |
| 20260903165836 | 60 | 176 | 4.0 | 6.0 | 0.00 | 0.00 | 0.00 | 77 | 997.4 |
| 20260903165332 | 61 | 178 | 4.0 | 5.0 | 0.00 | 0.00 | 0.00 | 77 | 997.4 |
| 20260903164828 | 61 | 182 | 4.0 | 6.0 | 0.00 | 0.00 | 0.00 | 77 | 997.3 |
| 20260903164313 | 60 | 178 | 4.0 | 6.0 | 0.00 | 0.00 | 0.00 | 77 | 997.4 |
| 20260903163808 | 61 | 174 | 4.0 | 6.0 | 0.00 | 0.00 | 0.00 | 77 | 997.4 |
| 20260903163303 | 61 | 177 | 5.0 | 6.0 | 0.00 | 0.00 | 0.00 | 76 | 997.2 |
| 20260903162750 | 62 | 171 | 4.0 | 6.0 | 0.00 | 0.00 | 0.00 | 76 | 997.4 |
| 20260903162500 | 62 | 171 | 5.0 | 6.0 | 0.00 | 0.00 | 0.00 | 75 | 997.4 |
| 20260903161731 | 62 | 173 | 4.0 | 6.0 | 0.00 | 0.00 | 0.00 | 73 | 997.5 |
| 20260903161226 | 63 | 163 | 5.0 | 6.0 | 0.00 | 0.00 | 0.00 | 73 | 997.4 |
| 20260903160711 | 63 | 176 | 4.0 | 5.0 | 0.00 | 0.00 | 0.00 | 73 | 997.2 |
| 20260903160416 | 63 | 177 | 4.0 | 5.0 | 0.00 | 0.00 | 0.00 | 72 | 997.1 |
| 20260903155914 | 63 | 180 | 3.0 | 5.0 | 0.00 | 0.00 | 0.00 | 72 | 997.1 |
| 20260903155149 | 63 | 176 | 4.0 | 5.0 | 0.00 | 0.00 | 0.00 | 72 | 997.3 |
| 20260903154614 | 63 | 177 | 4.0 | 5.0 | 0.00 | 0.00 | 0.00 | 72 | 997.1 |
| 20260903154335 | 63 | 177 | 4.0 | 5.0 | 0.00 | 0.00 | 0.00 | 72 | 997.3 |
| 20260903153605 | 63 | 180 | 4.0 | 6.0 | 0.00 | 0.00 | 0.00 | 72 | 997.1 |
| 20260903153051 | 63 | 176 | 5.0 | 6.0 | 0.00 | 0.00 | 0.00 | 72 | 997.2 |
| 20260903152805 | 63 | 175 | 4.0 | 5.0 | 0.00 | 0.00 | 0.00 | 74 | 997.2 |
| 20260903152043 | 63 | 183 | 3.0 | 5.0 | 0.00 | 0.00 | 0.00 | 74 | 997.2 |
| 20260903151540 | 63 | 180 | 4.0 | 5.0 | 0.00 | 0.00 | 0.00 | 74 | 997.1 |
| 20260903151035 | 63 | 180 | 4.0 | 5.0 | 0.00 | 0.00 | 0.00 | 72 | 997.1 |
| 20260903150531 | 64 | 182 | 3.0 | 5.0 | 0.00 | 0.00 | 0.00 | 72 | 997.0 |
| 20260903150027 | 65 | 188 | 3.0 | 5.0 | 0.00 | 0.00 | 0.00 | 68 | 997.2 |
| 20260903145509 | 65 | 180 | 4.0 | 5.0 | 0.00 | 0.00 | 0.00 | 66 | 997.1 |
| 20260903145009 | 65 | 178 | 4.0 | 5.0 | 0.00 | 0.00 | 0.00 | 65 | 997.1 |
| 20260903144510 | 66 | 187 | 4.0 | 5.0 | 0.00 | 0.00 | 0.00 | 64 | 997.1 |
| 20260903144010 | 66 | 183 | 4.0 | 5.0 | 0.00 | 0.00 | 0.00 | 64 | 997.1 |
| 20260903143507 | 65 | 178 | 3.0 | 5.0 | 0.00 | 0.00 | 0.00 | 66 | 997.2 |
| 20260903143002 | 65 | 176 | 4.0 | 5.0 | 0.00 | 0.00 | 0.00 | 68 | 997.3 |
| 20260903142723 | 65 | 178 | 4.0 | 5.0 | 0.00 | 0.00 | 0.00 | 67 | 997.3 |
| 20260903141954 | 65 | 175 | 3.0 | 5.0 | 0.00 | 0.00 | 0.00 | 68 | 997.2 |
| 20260903141448 | 65 | 179 | 4.0 | 5.0 | 0.00 | 0.00 | 0.00 | 69 | 997.3 |
| 20260903140944 | 65 | 182 | 4.0 | 4.0 | 0.00 | 0.00 | 0.00 | 69 | 997.1 |
| 20260903140440 | 65 | 186 | 3.0 | 4.0 | 0.00 | 0.00 | 0.00 | 70 | 997.0 |
| 20260903135938 | 65 | 181 | 3.0 | 4.0 | 0.00 | 0.00 | 0.00 | 70 | 997.1 |
| 20260903135437 | 64 | 179 | 3.0 | 5.0 | 0.00 | 0.00 | 0.00 | 72 | 997.0 |
| 20260903134917 | 64 | 175 | 3.0 | 5.0 | 0.00 | 0.00 | 0.00 | 72 | 997.0 |
| 20260903134413 | 64 | 175 | 4.0 | 5.0 | 0.00 | 0.00 | 0.00 | 71 | 997.0 |
| 20260903134128 | 64 | 170 | 4.0 | 5.0 | 0.00 | 0.00 | 0.00 | 71 | 997.0 |
| 20260903133354 | 65 | 181 | 4.0 | 5.0 | 0.00 | 0.00 | 0.00 | 71 | 996.9 |
| 20260903132903 | 64 | 180 | 4.0 | 5.0 | 0.00 | 0.00 | 0.00 | 71 | 997.0 |
| 20260903132336 | 65 | 178 | 4.0 | 5.0 | 0.00 | 0.00 | 0.00 | 71 | 996.9 |
| 20260903131821 | 65 | 181 | 4.0 | 5.0 | 0.00 | 0.00 | 0.00 | 71 | 996.8 |
| 20260903131318 | 65 | 182 | 4.0 | 5.0 | 0.00 | 0.00 | 0.00 | 71 | 996.8 |
| 20260903130814 | 65 | 173 | 4.0 | 5.0 | 0.00 | 0.00 | 0.00 | 71 | 996.9 |
| 20260903130533 | 65 | 178 | 4.0 | 5.0 | 0.00 | 0.00 | 0.00 | 72 | 997.0 |
| 20260903125806 | 65 | 173 | 4.0 | 5.0 | 0.00 | 0.00 | 0.00 | 72 | 997.0 |
| 20260903125306 | 65 | 184 | 3.0 | 4.0 | 0.00 | 0.00 | 0.00 | 71 | 996.9 |
| 20260903124806 | 66 | 190 | 4.0 | 5.0 | 0.00 | 0.00 | 0.00 | 70 | 996.9 |
| 20260903124526 | 66 | 181 | 4.0 | 5.0 | 0.00 | 0.00 | 0.00 | 69 | 996.7 |
| 20260903123757 | 66 | 177 | 4.0 | 4.0 | 0.00 | 0.00 | 0.00 | 68 | 996.9 |
| 20260903123512 | 66 | 184 | 3.0 | 4.0 | 0.00 | 0.00 | 0.00 | 68 | 996.7 |
| 20260903122749 | 66 | 180 | 3.0 | 4.0 | 0.00 | 0.00 | 0.00 | 68 | 996.9 |
| 20260903122245 | 66 | 182 | 3.0 | 4.0 | 0.00 | 0.00 | 0.00 | 70 | 997.0 |
| 20260903121740 | 66 | 183 | 4.0 | 5.0 | 0.00 | 0.00 | 0.00 | 70 | 996.9 |
| 20260903121721 | 67 | 205 | 2.0 | 5.0 | 0.00 | 0.00 | 0.00 | 68 | 996.7 |
| 20260903120735 | 68 | 176 | 3.0 | 5.0 | 0.00 | 0.00 | 0.00 | 65 | 996.8 |
| 20260903120235 | 69 | 182 | 4.0 | 5.0 | 0.00 | 0.00 | 0.00 | 64 | 996.9 |
| 20260903115734 | 69 | 180 | 3.0 | 5.0 | 0.00 | 0.00 | 0.00 | 61 | 996.7 |
| 20260903115220 | 70 | 177 | 4.0 | 5.0 | 0.00 | 0.00 | 0.00 | 59 | 996.8 |
| 20260903114716 | 71 | 174 | 4.0 | 5.0 | 0.00 | 0.00 | 0.00 | 56 | 996.7 |
| 20260903114212 | 72 | 182 | 3.0 | 5.0 | 0.00 | 0.00 | 0.00 | 54 | 996.6 |
| 20260903113708 | 72 | 179 | 4.0 | 5.0 | 0.00 | 0.00 | 0.00 | 52 | 996.7 |
| 20260903113425 | 72 | 175 | 3.0 | 5.0 | 0.00 | 0.00 | 0.00 | 51 | 996.7 |
| 20260903112659 | 72 | 180 | 4.0 | 5.0 | 0.00 | 0.00 | 0.00 | 51 | 996.6 |
| 20260903112628 | 72 | 165 | 4.0 | 5.0 | 0.00 | 0.00 | 0.00 | 51 | 996.5 |
| 20260903111905 | 72 | 178 | 4.0 | 5.0 | 0.00 | 0.00 | 0.00 | 52 | 996.5 |
| 20260903111136 | 73 | 175 | 4.0 | 5.0 | 0.00 | 0.00 | 0.00 | 51 | 996.3 |
| 20260903110632 | 72 | 181 | 3.0 | 5.0 | 0.00 | 0.00 | 0.00 | 52 | 996.3 |
| 20260903110118 | 72 | 179 | 4.0 | 5.0 | 0.00 | 0.00 | 0.00 | 52 | 996.5 |
| 20260903105613 | 72 | 179 | 4.0 | 5.0 | 0.00 | 0.00 | 0.00 | 52 | 996.4 |
| 20260903105059 | 72 | 183 | 4.0 | 5.0 | 0.00 | 0.00 | 0.00 | 52 | 996.3 |
| 20260903104607 | 72 | 185 | 4.0 | 5.0 | 0.00 | 0.00 | 0.00 | 52 | 996.3 |
| 20260903104051 | 73 | 180 | 3.0 | 5.0 | 0.00 | 0.00 | 0.00 | 52 | 996.2 |
| 20260903103546 | 73 | 180 | 4.0 | 5.0 | 0.00 | 0.00 | 0.00 | 52 | 996.0 |
| 20260903103042 | 73 | 182 | 4.0 | 5.0 | 0.00 | 0.00 | 0.00 | 52 | 996.1 |
| 20260903102530 | 73 | 183 | 4.0 | 5.0 | 0.00 | 0.00 | 0.00 | 53 | 996.0 |
| 20260903102013 | 73 | 189 | 3.0 | 5.0 | 0.00 | 0.00 | 0.00 | 54 | 996.0 |
| 20260903101509 | 73 | 182 | 3.0 | 4.0 | 0.00 | 0.00 | 0.00 | 52 | 995.8 |
| 20260903101005 | 74 | 173 | 4.0 | 5.0 | 0.00 | 0.00 | 0.00 | 52 | 995.8 |
| 20260903100500 | 74 | 188 | 2.0 | 5.0 | 0.00 | 0.00 | 0.00 | 51 | 995.9 |
| 20260903095957 | 74 | 185 | 3.0 | 5.0 | 0.00 | 0.00 | 0.00 | 50 | 995.8 |
| 20260903095452 | 74 | 190 | 2.0 | 5.0 | 0.00 | 0.00 | 0.00 | 50 | 995.7 |
| 20260903094927 | 74 | 203 | 3.0 | 4.0 | 0.00 | 0.00 | 0.00 | 51 | 995.8 |
| 20260903094423 | 75 | 191 | 3.0 | 4.0 | 0.00 | 0.00 | 0.00 | 49 | 995.5 |
| 20260903094148 | 75 | 188 | 3.0 | 4.0 | 0.00 | 0.00 | 0.00 | 49 | 995.6 |
| 20260903093415 | 75 | 182 | 3.0 | 4.0 | 0.00 | 0.00 | 0.00 | 48 | 995.4 |
| 20260903093142 | 75 | 186 | 3.0 | 4.0 | 0.00 | 0.00 | 0.00 | 48 | 995.5 |
| 20260903092400 | 76 | 178 | 3.0 | 4.0 | 0.00 | 0.00 | 0.00 | 47 | 995.6 |
| 20260903092118 | 76 | 182 | 4.0 | 4.0 | 0.00 | 0.00 | 0.00 | 46 | 995.4 |
| 20260903091400 | 76 | 178 | 4.0 | 5.0 | 0.00 | 0.00 | 0.00 | 45 | 995.4 |
| 20260903091122 | 76 | 183 | 3.0 | 5.0 | 0.00 | 0.00 | 0.00 | 44 | 995.5 |
| 20260903090403 | 77 | 190 | 3.0 | 5.0 | 0.00 | 0.00 | 0.00 | 44 | 995.4 |
| 20260903085846 | 77 | 182 | 3.0 | 5.0 | 0.00 | 0.00 | 0.00 | 44 | 995.4 |
| 20260903085342 | 77 | 181 | 4.0 | 5.0 | 0.00 | 0.00 | 0.00 | 43 | 995.0 |
| 20260903084837 | 77 | 180 | 4.0 | 5.0 | 0.00 | 0.00 | 0.00 | 43 | 995.2 |
| 20260903084323 | 77 | 182 | 4.0 | 5.0 | 0.00 | 0.00 | 0.00 | 43 | 995.1 |
| 20260903083819 | 77 | 184 | 3.0 | 5.0 | 0.00 | 0.00 | 0.00 | 43 | 994.9 |
| 20260903083315 | 77 | 181 | 4.0 | 5.0 | 0.00 | 0.00 | 0.00 | 42 | 995.1 |
| 20260903083033 | 78 | 180 | 4.0 | 4.0 | 0.00 | 0.00 | 0.00 | 43 | 994.9 |
| 20260903082306 | 78 | 180 | 3.0 | 4.0 | 0.00 | 0.00 | 0.00 | 43 | 995.0 |
| 20260903082020 | 78 | 180 | 3.0 | 4.0 | 0.00 | 0.00 | 0.00 | 43 | 994.8 |
| 20260903081513 | 78 | 173 | 4.0 | 5.0 | 0.00 | 0.00 | 0.00 | 43 | 994.7 |
| 20260903080734 | 79 | 182 | 3.0 | 5.0 | 0.00 | 0.00 | 0.00 | 42 | 994.7 |
| 20260903080218 | 79 | 181 | 3.0 | 5.0 | 0.00 | 0.00 | 0.00 | 42 | 994.6 |
| 20260903075714 | 79 | 190 | 3.0 | 5.0 | 0.00 | 0.00 | 0.00 | 41 | 994.2 |
| 20260903075210 | 79 | 180 | 4.0 | 6.0 | 0.00 | 0.00 | 0.00 | 42 | 994.4 |
| 20260903074706 | 80 | 192 | 3.0 | 6.0 | 0.00 | 0.00 | 0.00 | 42 | 994.3 |
| 20260903074157 | 80 | 180 | 4.0 | 5.0 | 0.00 | 0.00 | 0.00 | 41 | 994.2 |
| 20260903073658 | 80 | 186 | 4.0 | 6.0 | 0.00 | 0.00 | 0.00 | 40 | 994.5 |
| 20260903073420 | 81 | 184 | 3.0 | 6.0 | 0.00 | 0.00 | 0.00 | 40 | 994.4 |
| 20260903072921 | 81 | 185 | 3.0 | 6.0 | 0.00 | 0.00 | 0.00 | 40 | 994.2 |
| 20260903072414 | 81 | 184 | 4.0 | 5.0 | 0.00 | 0.00 | 0.00 | 39 | 994.2 |
| 20260903071651 | 81 | 176 | 5.0 | 6.0 | 0.00 | 0.00 | 0.00 | 38 | 994.3 |
| 20260903071146 | 82 | 180 | 4.0 | 6.0 | 0.00 | 0.00 | 0.00 | 38 | 994.1 |
| 20260903070642 | 82 | 189 | 3.0 | 6.0 | 0.00 | 0.00 | 0.00 | 39 | 993.9 |
| 20260903070150 | 82 | 183 | 5.0 | 7.0 | 0.00 | 0.00 | 0.00 | 39 | 994.4 |
| 20260903065633 | 82 | 175 | 4.0 | 7.0 | 0.00 | 0.00 | 0.00 | 39 | 994.1 |
| 20260903065126 | 83 | 182 | 4.0 | 6.0 | 0.00 | 0.00 | 0.00 | 39 | 994.0 |
| 20260903064626 | 83 | 187 | 5.0 | 6.0 | 0.00 | 0.00 | 0.00 | 39 | 993.9 |
| 20260903064125 | 83 | 182 | 4.0 | 6.0 | 0.00 | 0.00 | 0.00 | 39 | 993.8 |
| 20260903063625 | 83 | 185 | 3.0 | 9.0 | 0.00 | 0.00 | 0.00 | 39 | 994.0 |
| 20260903063112 | 83 | 195 | 4.0 | 9.0 | 0.00 | 0.00 | 0.00 | 38 | 993.8 |
| 20260903062826 | 83 | 179 | 5.0 | 7.0 | 0.00 | 0.00 | 0.00 | 38 | 994.0 |
| 20260903062104 | 84 | 180 | 3.0 | 9.0 | 0.00 | 0.00 | 0.00 | 39 | 994.0 |
| 20260903061600 | 84 | 182 | 4.0 | 9.0 | 0.00 | 0.00 | 0.00 | 39 | 993.9 |
| 20260903061056 | 84 | 179 | 3.0 | 9.0 | 0.00 | 0.00 | 0.00 | 38 | 993.9 |
| 20260903060551 | 84 | 171 | 5.0 | 9.0 | 0.00 | 0.00 | 0.00 | 38 | 993.9 |
| 20260903060100 | 84 | 180 | 4.0 | 9.0 | 0.00 | 0.00 | 0.00 | 40 | 994.1 |
| 20260903055533 | 84 | 186 | 4.0 | 9.0 | 0.00 | 0.00 | 0.00 | 40 | 994.1 |
| 20260903055018 | 84 | 182 | 6.0 | 9.0 | 0.00 | 0.00 | 0.00 | 37 | 994.1 |
| 20260903054514 | 84 | 194 | 4.0 | 9.0 | 0.00 | 0.00 | 0.00 | 37 | 993.9 |
| 20260903054010 | 85 | 169 | 6.0 | 9.0 | 0.00 | 0.00 | 0.00 | 37 | 994.0 |
| 20260903053455 | 85 | 166 | 3.0 | 9.0 | 0.00 | 0.00 | 0.00 | 39 | 994.1 |
| 20260903052951 | 85 | 181 | 5.0 | 9.0 | 0.00 | 0.00 | 0.00 | 38 | 994.1 |
| 20260903052446 | 85 | 180 | 5.0 | 8.0 | 0.00 | 0.00 | 0.00 | 39 | 994.0 |